Location: Rounton
(54.4000°N, 1.3500°W)
Time: 23:33:05
(UTC+00:00)

Transit 4A - Visible Passes

Search period start: 29 November 2021 00:00
Search period end: 09 December 2021 00:00
Orbit: 866 x 978 km, 66.8° (Epoch: 29 November)

Date Brightness Start Highest point End Pass type
(mag) Time Alt. Az. Time Alt. Az. Time Alt. Az.
29 Nov 10.3 02:32:13 17° ENE 02:32:13 17° ENE 02:33:54 10° E visible
29 Nov 8.0 04:15:46 72° NE 04:15:46 72° NE 04:22:02 10° SE visible
29 Nov 8.7 05:59:18 25° WNW 06:01:43 34° WSW 06:07:18 10° S visible
30 Nov 10.2 02:41:53 19° E 02:41:53 19° E 02:43:43 10° E visible
30 Nov 7.9 04:25:25 80° SE 04:25:25 80° SE 04:31:25 10° SE visible
30 Nov 9.0 06:08:59 22° W 06:10:46 25° WSW 06:15:46 10° SSW visible
01 Dec 10.1 02:51:37 19° E 02:51:37 19° E 02:53:29 10° ESE visible
01 Dec 8.0 04:35:11 63° S 04:35:11 63° S 04:40:39 10° SSE visible
01 Dec 9.3 06:18:45 17° W 06:19:45 18° WSW 06:23:50 10° SW visible
02 Dec 10.1 03:01:27 19° ESE 03:01:27 19° ESE 03:03:11 10° ESE visible
02 Dec 8.5 04:45:01 45° SSW 04:45:01 45° SSW 04:49:43 10° SSE visible
02 Dec 9.6 06:28:35 13° W 06:28:39 13° W 06:31:13 10° SW visible
03 Dec 10.1 03:11:22 17° ESE 03:11:22 17° ESE 03:12:47 10° ESE visible
03 Dec 9.0 04:54:57 31° SSW 04:54:57 31° SSW 04:58:35 10° S visible
03 Dec 10.2 19:59:51 10° SSW 20:00:05 11° SSW 20:00:05 11° SSW visible
04 Dec 10.2 03:21:22 14° SE 03:21:22 14° SE 03:22:15 10° SE visible
04 Dec 9.5 05:04:57 20° SSW 05:04:57 20° SSW 05:07:13 10° S visible
04 Dec 9.5 18:24:47 10° SSE 18:26:30 17° SSE 18:26:30 17° SSE visible
04 Dec 10.0 20:09:04 10° SW 20:10:04 16° SW 20:10:04 16° SW visible
05 Dec 10.4 03:31:27 11° SE 03:31:27 11° SE 03:31:35 10° SE visible
05 Dec 10.0 05:15:01 12° SSW 05:15:01 12° SSW 05:15:33 10° SSW visible
05 Dec 9.0 18:33:12 10° S 18:36:24 26° SSE 18:36:24 26° SSE visible
05 Dec 9.9 20:18:25 10° SW 20:19:58 19° SW 20:19:58 19° SW visible
06 Dec 8.4 18:41:54 10° S 18:46:13 39° SSE 18:46:13 39° SSE visible
06 Dec 9.9 20:27:54 10° WSW 20:29:47 21° WSW 20:29:47 21° WSW visible
07 Dec 9.5 17:08:46 10° SE 17:11:31 13° ESE 17:12:24 13° E visible
07 Dec 8.0 18:50:49 10° SSW 18:55:58 56° SSE 18:55:58 56° SSE visible
07 Dec 9.9 20:37:31 10° WSW 20:39:31 21° W 20:39:31 21° W visible
08 Dec 9.2 17:16:22 10° SSE 17:20:25 19° ESE 17:22:04 17° E visible
08 Dec 7.7 18:59:57 10° SSW 19:05:37 77° SSE 19:05:37 77° SSE visible
08 Dec 10.0 20:47:12 10° W 20:49:09 20° W 20:49:09 20° W visible
